Location: Holyhead Bay
(53.3667°N, 4.6667°W)
Time: 19:01:20
(UTC+00:00)

ISS - Pass Details

Date: 24 November 2020
Orbit: 418 x 419 km, 51.6° (Epoch: 18 January)

Event Time Altitude Azimuth Distance (km) Brightness Sun altitude
Rises 18:31:23 0° 237° (WSW) 2,362 1.2 -20.3°
Reaches altitude 10° 18:33:33 10° 230° (SW) 1,499 -0.2 -20.6°
Enters shadow 18:36:13 37° 184° (S) 672 -2.7 -21.0°
